Regional Weather Roundup
Issued by NWS Charleston, WV

Home | Current Version | Previous Version | Graphics & Text | Print | Product List | Glossary On
Versions: 1 2 3 4 5 6 7 8 9 10 11 12 13 14 15 16 17 18 19 20 21 22 23 24 25 26 27
000
ASUS41 KRLX 051110
RWRRLX
West Virginia Regional Weather Roundup
National Weather Service Charleston WV
700 AM EDT THU MAY 05 2016

Note: "fair" indicates few or no clouds below 12,000 feet with no
significant weather and/or obstructions to visibility.

WVZ003-051200-
Northern Panhandle of West Virginia

CITY           SKY/WX    TMP DP  RH WIND       PRES   REMARKS
WHEELING       LGT RAIN  49  46  90 CALM      29.68R FOG
$$

WVZ009-051200-
Northwest West Virginia

CITY           SKY/WX    TMP DP  RH WIND       PRES   REMARKS
PARKERSBURG    LGT RAIN  46  44  93 NW6       29.73R
$$

WVZ006-051200-
Western West Virginia

CITY           SKY/WX    TMP DP  RH WIND       PRES   REMARKS
HUNTINGTON     CLOUDY    44  39  82 CALM      29.73R
$$

WVZ015-051200-
West Central West Virginia

CITY           SKY/WX    TMP DP  RH WIND       PRES   REMARKS
CHARLESTON     CLOUDY    45  40  82 W5        29.71R
$$

WVZ022-031-051200-
North Central West Virginia

CITY           SKY/WX    TMP DP  RH WIND       PRES   REMARKS
CLARKSBURG     LGT RAIN  49  47  93 CALM      29.66R FOG
MORGANTOWN     CLOUDY    50  45  83 CALM      29.68R FOG
$$

WVZ025-035-042-045-051200-
Southern West Virginia

CITY           SKY/WX    TMP DP  RH WIND       PRES   REMARKS
BECKLEY        LGT RAIN  42  39  89 NW6       29.67R
LOGAN          NOT AVBL
BLUEFIELD      CLOUDY    40  38  93 W8        29.67R
LEWISBURG      CLOUDY    45  42  89 NW6       29.64R
$$

WVZ047-051200-
Northern Mountains of West Virginia

CITY           SKY/WX    TMP DP  RH WIND       PRES   REMARKS
ELKINS         LGT RAIN  46  43  89 CALM      29.66R
$$

WVZ052-051200-
Eastern Panhandle of West Virginia

CITY           SKY/WX    TMP DP  RH WIND       PRES   REMARKS
MARTINSBURG    CLOUDY    50  48  93 N6        29.65S
PETERSBURG     LGT RAIN  52  50  93 NW3       29.64S
$$




USA.gov is the U.S. government's official web portal to all federal, state and local government web resources and services.